Regional Weather Roundup
Issued by NWS Wakefield, VA

Home | Current Version | Previous Version | Graphics & Text | Print | Product List | Glossary On
Versions: 1 2 3 4 5 6 7 8 9 10 11 12 13 14 15 16 17 18 19 20 21 22 23 24 25 26 27 28 29 30 31 32 33 34 35 36 37 38 39 40 41 42 43 44 45 46 47 48 49 50
647
ASUS41 KAKQ 242315
RWRAKQ

REGIONAL WEATHER ROUNDUP
NATIONAL WEATHER SERVICE WAKEFIELD VA
700 PM EDT TUE MAY 24 2016

Note: "fair" indicates few or no clouds below 12,000 feet with no
significant weather and/or obstructions to visibility. * = Denotes
station may not report precipitation (e.g., rain,snow,etc.),
thunder or fog.

VAZ042-051-052>054-056-250000-
NORTHERN VIRGINIA

CITY           SKY/WX    TMP DP  RH WIND       PRES   REMARKS
WASH NATIONAL  FAIR      82  48  30 NW13      29.99R
DULLES         FAIR      80  47  31 NW10      30.00R
FORT BELVOIR   FAIR      81  48  31 NW12      29.99R
QUANTICO       PTSUNNY   80  53  39 W3        30.00R
FREDERICKSBRG* PTSUNNY   82  54  36 CALM      30.00R
STAFFORD*      FAIR      79  56  45 CALM      30.05R
WARRENTON      FAIR      79  44  28 NW6       30.01R
CULPEPER*      FAIR      81  50  33 NW6       30.02R
MANASSAS*      SUNNY     81  46  30 NW12      30.00R
LEESBURG*      FAIR      81  52  36 NW13G18   30.01R
WINCHESTER     FAIR      79  50  36 NW10      30.02S
FRONT ROYAL*   FAIR      77  50  38 NW6       30.02R
LURAY*         FAIR      79  46  31 NW5       30.04R
$$

VAZ048-049-060>072-079>083-250000-
CENTRAL AND SOUTH CENTRAL VIRGINIA

CITY           SKY/WX    TMP DP  RH WIND       PRES   REMARKS
RICHMOND       FAIR      78  57  48 S8        30.02R
CHESTERFIELD*  FAIR      81  52  36 SW5       30.04R
PETERSBURG*    FAIR     N/A N/A N/A SW3       30.03S
HANOVER        PTSUNNY   81  50  33 W8        30.03R
TAPPAHANNOCK*  FAIR      82  49  31 CALM      30.02S
QUINTON*       FAIR      79  56  44 CALM      30.01S
CHARLOTTSVILLE PTSUNNY   79  54  41 SW6       30.02R
GORDONSVILLE*  CLOUDY    80  56  43 CALM      30.02R
ORANGE*        FAIR      81  50  34 CALM      30.03R
LOUISA*        FAIR      84  61  45 CALM      30.01R
BUMPASS*       MOCLDY    80  54  41 SW5       30.02R
FARMVILLE*     NOT AVBL
CREWE*         FAIR      80  54  40 CALM      30.04R
FORT PICKETT*  NOT AVBL
CHASE CITY*    FAIR      79  52  39 CALM      30.06S
CLARKSVILLE*   FAIR      79  55  44 SW5       30.05F
SOUTH HILL*    FAIR      78  56  47 SW6       30.11S
LAWRENCEVILLE* FAIR      78  58  50 SW6       30.05S
EMPORIA*       FAIR      79  54  41 SW5       30.06S
$$

VAZ088>098-250000-
SOUTHEAST VIRGINIA

CITY           SKY/WX    TMP DP  RH WIND       PRES   REMARKS
NORFOLK        FAIR      81  49  32 CALM      30.03R
VIRGINIA BEACH FAIR      83  52  34 NW7       30.02R
NORFOLK NAVAL  FAIR      81  52  36 W6        30.04R
WEST POINT*    FAIR      80  50  35 W3        30.03S
SALUDA*        FAIR      76  60  58 CALM      30.02S
NEWPORT NEWS   FAIR      80  54  40 NW8       30.03R
LANGLEY AFB    FAIR      80  54  40 W5        30.03R
FORT EUSTIS    FAIR      79  64  61 NW2       30.01S
WILLIAMSBURG*  FAIR      82  55  39 CALM      30.03S
HR EXEC AP*    FAIR      81  57  44 NW3       30.05R
FRANKLIN*      FAIR      79  56  44 W7        30.05R
US460-WAKEFLD  FAIR      81  53  37 W7        30.03S
$$

VAZ020-022-025-037-045-250000-
WEST CENTRAL AND SOUTHWEST VIRGINIA

CITY           SKY/WX    TMP DP  RH WIND       PRES   REMARKS
STAUNTON*      FAIR      78  48  35 NW6       30.07S
WAYNESBORO*    FAIR      78  45  31 N6        30.07R
HOT SPRINGS VA FAIR      69  39  33 W12       30.17S
LYNCHBURG      FAIR      78  51  38 SW5       30.07S
DANVILLE       FAIR      78  54  43 SW7       30.06F
SOUTH BOSTON*  FAIR      79  53  40 SW6       30.06S
MARTINSVILLE   FAIR      77  55  45 CALM      30.09F
ROANOKE        FAIR      79  48  33 NW7       30.09S
BLACKSBURG     FAIR      76  49  39 SW3       30.15S
DUBLIN*        FAIR      78  46  32 W7        30.13S
MARION*        FAIR      73  51  45 W8        30.18S
HILLSVILLE*    FAIR      73  47  38 NW8       30.14F
RICHLANDS*     FAIR      73  38  29 SW8       30.16F
WISE*          PTSUNNY   73  41  31 W9        30.18R
ABINGDON*      FAIR      76  48  36 W7        30.15S
$$

MDZ021>025-VAZ099-100-250000-
SOUTHERN MARYLAND AND THE DELMARVA PENINSULA

CITY           SKY/WX    TMP DP  RH WIND       PRES   REMARKS
PATUXENT RIVER MOSUNNY   79  51  37 SW7       29.99S
BAY BRIDGE APT SUNNY     77  55  47 W7        29.97S
LEONARDTOWN    NOT AVBL
DOVER          SUNNY     79  56  43 SW12      29.94R
GEORGETOWN     SUNNY     79  49  34 W6        29.98R
EASTON         MOSUNNY   81  59  47 CALM      30.02R
CAMBRIDGE      SUNNY     77  50  38 W3        29.99R
SALISBURY      SUNNY     76  56  49 SW8       29.99R
OCEAN CITY     SUNNY     70  59  68 SW7       30.00R
WALLOPS ISLAND FAIR      78  53  41 SW5       30.01S
ACCOMACK*      FAIR      79  52  38 CALM      30.02S
$$

NCZ012>017-030>032-250000-
NORTH CENTRAL AND EASTERN NORTH CAROLINA

CITY           SKY/WX    TMP DP  RH WIND       PRES   REMARKS
ROANOKE RAPIDS FAIR      81  52  36 W3        30.05F
RALEIGH        MOSUNNY   79  52  38 W7        30.08F
ELIZABETH CITY SUNNY     78  56  46 W6        30.04R
AHOSKIE*       SUNNY     78  55  44 CALM      30.06R
EDENTON*       SUNNY     80  60  50 SW5       30.06S
CURRITUCK*     MOSUNNY   81  53  37 W5        30.05R
KILL DEVIL HLS MOSUNNY   79  55  43 SW3       30.04S
MANTEO         PTSUNNY   76  63  64 SE3       30.06R
CAPE HATTERAS  SUNNY     71  61  70 SW15      30.09R
TARBORO*       FAIR      82  53  37 W5        30.06F
GOLDSBORO      SUNNY     82  50  32 SW7       30.06F
WASHINGTON     SUNNY     80  53  38 W3        30.06S
GREENVILLE     SUNNY     81  54  39 W3        30.08S
NEW BERN       MOSUNNY   76  58  53 S12       30.09R
WILMINGTON     SUNNY     76  55  48 S9        30.10S
$$

VAZ048-250000-
ELSEWHERE

CITY           SKY/WX    TMP DP  RH WIND       PRES   REMARKS
HARRISBURG PA  MOSUNNY   79  48  33 W13       29.94R
BALTIMORE      PTSUNNY   79  48  33 W7        29.97R
ANNAPOLIS      SUNNY     81  49  32 W5        29.97R
ANDREWS AFB    FAIR      79  50  35 NW6       29.98S
PHILADELPHIA   CLOUDY    81  43  26 W14       29.92R
HENDERSON NC   SUNNY     77  51  40 SW6       30.07S
GREENSBORO     MOSUNNY   78  49  35 W8        30.08F
ROCKY MOUNT    SUNNY     81  53  37 W5        30.06F
$$

VAZ100-250000-
MARINE

STATION/POSITION TIME  TEMP    WIND        PRES    WAVE   SWELL
                       AIR SEA DIR/SP/G            HT/PER HT/PER
                 (UTC) (F)     (DEG/KT/KT) (MB)    (FT/S) (FT/S)
BRANDYWINE LGT   2200   67                   N/A
CAPE MAY NJ      2200   69                   N/A
LEWES DE         2200   79                   N/A
15NM E FENWICK I 2150   63 59              1015.1    2/ 9
OCEAN-CITY-INLET 2200   65                   N/A
WACHAPREAGUE VA  2200   80                   N/A
THOMAS POINT MD  2200   80 63  290/ 13/ 14 1016.0F
GOOSES REEF MD   2200   74 64  290/  6/  8 1016.2R   1/ 2
COVE POINT MD    2200   74                   N/A
SOLOMONS ISLAND  2200   79                   N/A
BISHOPS HEAD MD  2200   74                   N/A
PINEY POINT MD   2212          300/  6/  7   N/A
POTOMAC MD       2200   71 64  270/  6/  6 1014.9R   1/ 2
CAMBRIDGE MD     2200   80                   N/A
LEWISETTA VA     2200   80                   N/A
RAPPAHANNOCK LGT 2212          180/  4/  5 1017.1R
STINGRAY PT      2200   69 66  140/  6/  8 1016.9R   0
YORK RVR RNG VA  2200   75                   N/A
YORKTOWN VA      2200   79                   N/A
JAMESTOWN VA     2200   78 69  290/  4/  6   N/A
DOMINION TERM VA 2200   78                   N/A
KIPTOPEKE VA     2212      65  330/  1/  2   N/A
CHES BAY BRIDGE  2200   78                   N/A
CAPE HENRY VA    2200   76                   N/A
CHESAPEAKE LGHT  2200   72     180/  6/  6 1017.5R
WILLOUBY STN VA  2200   79                   N/A
CAPE HENRY BUOY  2212      64                N/A     2/ 9
1ST LANDING BUOY 2200   74 66  280/  4/  4 1016.6R   1/ 4
CAPE CHARLES BUO 2226      64                N/A     2/ 9   2/ 9
OFFSHORE WE BUOY 2221      61                N/A     2/ 9   2/ 9
64NM E OF VA BCH 2150   62 57  220/ 10/ 10 1017.1    3/ 9   3/ 9
DUCK PIER NC     2200   76                   N/A
44100 DUCK FRF   2224      62                N/A     2/ 9   2/11
44056 DUCK FRF   2211      64                N/A     2/ 9
OREGON INLET NC  2200   71                   N/A
HATTERAS NC      2200   71                   N/A
DIAMOND SHLS NC  2150   73 79  230/ 16/ 17 1018.5    3/ 9   3/ 9
CAPE LOOKOUT NC  2200   72     220/ 12/ 1C1F1C2F2C3F3C4F4C5F5C6F6C7F7C8M1C9!



USA.gov is the U.S. government's official web portal to all federal, state and local government web resources and services.